METEOR 2-17 DEB, 38539

Orbit data source: Space-Track

METEOR 2-17 DEB, 38539 is space debris in LEO originally from a launch on Sat, 30 Jan 1988 UTC launched from the Plesetsk Missile And Space Complex (PKMTR). Debris objects in space refer to the collection of defunct objects orbiting the Earth. Examples of debris include non-operational satellites, rocket bodies, and fragments generated from explosions, collisions, or faulty payload assembly.

Loading next visibility...
Identifier
38539, 1988-005AS
Orbit
LEO
Country
Flag of CISCIS
Related business
Manufacturer
Unknown
Mission
Spacecraft
Bus & Motor
Unknown
Mass
Unknown
Launch date (UTC)
1988-01-30 (38 years ago)
Launch vehicle
Unknown
Launch site
Plesetsk Missile And Space Complex (PKMTR)
Object type
Payload
Rocket body
Debris
Shape & HBR
Unknown shape, 0.1 m
Radar Cross Section
Small (<0.1 m²)

Expand to show TLE details & history
Last TLE update: 3 days ago

TLE from 3 days ago
0 METEOR 2-17 DEB
1 38539U 88005AS  25349.89286882  .00001842  00000-0  12325-2 0  9993
2 38539  82.5314  56.3480 0031082  84.1993 276.2718 14.00205159 74750
Epoch: 2025-12-15T21:25Z
TLE epoch observation values (Epoch: 2025-12-15T21:25:43.866Z)
Latitude
-0.00002°
Longitude
10.13032°
Altitude
893.609 km
Speed
7.407 km/s
True Right ascension
03h 45m 23s
True Declination
0° 00' 00"
Sunlit
Object was in full shadow at epoch
Visualization orbit readout
Latitude
Unknown
Longitude
Unknown
Altitude
Unknown
Speed
Unknown
Apparent Right ascension
Unknown
Apparent Declination
Unknown
Sunlit
N/A
Visualization observer readout
Local Sidereal Time
20:39:47
Azimuth
Unknown
Elevation
Unknown
Doppler factor
Unknown
Orbital elements
Apogee altitude
912.807 km
Perigee altitude
867.624 km
Semi-major axis
7,268.352 km
Eccentricity
0.00311
Inclination
82.5314°
RAAN
56.348°
Arg. of periapsis
84.1993°
True anomaly
275.91761°
Mean anomaly
276.2718°
Eccentric anomaly
276.09472°
Mean motion
3.50259 °/min
Orbital period
102.78 mins
BSTAR
0.0012325
Loading maneuver chart data...
Computing Atmospheric mass density...
Loading historical data...
Loading historical data...
Loading historical data...
Loading historical data...
Loading historical data...
Loading historical data...
Loading historical data...

Documentation

Showing up to 5 results
|